Regional Weather Roundup
Issued by NWS

Home | Current Version | Previous Version | Text Only | Print | Product List | Glossary Off
Versions: 1 2 3 4 5 6 7 8 9 10 11 12 13 14 15 16 17 18 19 20 21 22 23 24 25 26 27 28 29 30 31 32 33 34 35 36 37 38 39 40 41 42 43 44 45 46 47 48 49 50

000
ASUS43 KBIS 262020
RWRND

NORTH DAKOTA REGIONAL WEATHER ROUNDUP
NATIONAL WEATHER SERVICE BISMARCK ND
300 PM CDT SUN APR 26 2015

NOTE: "FAIR" INDICATES FEW OR NO CLOUDS BELOW 12,000 FEET WITH NO
SIGNIFICANT WEATHER AND/OR OBSTRUCTIONS TO VISIBILITY.


NDZ001>003-009>011-017-262100-
NORTHWEST NORTH DAKOTA

CITY           SKY/WX    TMP DP  RH WIND       PRES   REMARKS
WILLISTON      MOSUNNY   52  35  52 W8        30.12R
MINOT          CLOUDY    48  42  80 E3        30.11R
MINOT AFB      CLOUDY    52  46  82 VRB1      30.10R
$$

NDZ018>021-031>035-040>046-262100-
SOUTHWEST NORTH DAKOTA

CITY           SKY/WX    TMP DP  RH WIND       PRES   REMARKS
BISMARCK       CLOUDY    57  44  62 N3        30.10S
DICKINSON      CLOUDY    44  40  85 NE12      30.09R
GARRISON         N/A     47  44  90 NW7       30.11R
HETTINGER ARPT LGT RAIN  47  45  93 NE12      30.08R
$$

NDZ004>008-012>016-024-026-027-054-262100-
NORTHEAST NORTH DAKOTA

CITY           SKY/WX    TMP DP  RH WIND       PRES   REMARKS
GRAND FORKS    MOSUNNY   67  26  21 S6        30.12S
GRND FRKS AFB  SUNNY     66  27  22 VRB7      30.11F
DEVILS LAKE    PTSUNNY   61  43  51 W8        30.10S
$$

NDZ022-023-025-028>030-036>039-047>053-262100-
SOUTHEAST NORTH DAKOTA

CITY           SKY/WX    TMP DP  RH WIND       PRES   REMARKS
FARGO          SUNNY     66  24  20 MISG      30.11F
JAMESTOWN      MOSUNNY   65  35  33 VRB6      30.08S
$$



USA.gov is the U.S. government's official web portal to all federal, state and local government web resources and services.